| time (UTC) | temp F | wind direction | speed MPH | gust MPH | rain 1hr in | rain 24hr in | rain mn in | humidity % | barometer mb |
| 20260508064534 | 63 | 337 | 5.0 | 13.0 | 0.16 | 1.30 | 0.33 | 90 | 1006.8 |
| 20260508064039 | 63 | 289 | 5.0 | 11.0 | 0.16 | 1.30 | 0.33 | 90 | 1006.8 |
| 20260508063602 | 63 | 335 | 4.0 | 13.0 | 0.20 | 1.30 | 0.33 | 90 | 1006.4 |
| 20260508063027 | 63 | 318 | 7.0 | 15.0 | 0.16 | 1.26 | 0.32 | 89 | 1006.9 |
| 20260508062550 | 63 | 9 | 5.0 | 20.0 | 0.20 | 1.26 | 0.32 | 89 | 1006.1 |
| 20260508062034 | 63 | 20 | 6.0 | 20.0 | 0.16 | 1.22 | 0.31 | 90 | 1006.9 |
| 20260508061538 | 63 | 356 | 9.0 | 18.0 | 0.16 | 1.18 | 0.30 | 90 | 1007.1 |
| 20260508061043 | 63 | 348 | 7.0 | 18.0 | 0.20 | 1.18 | 0.30 | 90 | 1007.0 |
| 20260508060527 | 63 | 359 | 10.0 | 27.0 | 0.24 | 1.14 | 0.29 | 90 | 1006.7 |
| 20260508060034 | 63 | 9 | 13.0 | 27.0 | 0.55 | 1.14 | 0.29 | 91 | 1006.8 |
| 20260508055541 | 63 | 5 | 8.0 | 19.0 | 0.79 | 1.14 | 0.29 | 92 | 1007.1 |
| 20260508055046 | 63 | 356 | 9.0 | 15.0 | 0.79 | 1.14 | 0.29 | 92 | 1007.0 |
| 20260508054531 | 63 | 295 | 7.0 | 19.0 | 0.79 | 1.14 | 0.29 | 93 | 1006.8 |
| 20260508054036 | 62 | 340 | 11.0 | 19.0 | 0.79 | 1.14 | 0.29 | 93 | 1006.9 |
| 20260508053540 | 62 | 342 | 9.0 | 19.0 | 0.75 | 1.10 | 0.28 | 92 | 1006.8 |
| 20260508053024 | 62 | 359 | 7.0 | 19.0 | 0.75 | 1.10 | 0.28 | 92 | 1006.6 |
| 20260508052532 | 62 | 9 | 10.0 | 19.0 | 0.71 | 1.06 | 0.27 | 92 | 1006.9 |
| 20260508052056 | 62 | 10 | 9.0 | 18.0 | 0.71 | 1.06 | 0.27 | 92 | 1006.9 |
| 20260508051539 | 62 | 1 | 10.0 | 18.0 | 0.67 | 1.02 | 0.26 | 92 | 1006.9 |
| 20260508051045 | 62 | 21 | 9.0 | 15.0 | 0.63 | 0.98 | 0.25 | 91 | 1006.9 |
| 20260508050528 | 63 | 333 | 8.0 | 12.0 | 0.55 | 0.91 | 0.23 | 91 | 1007.3 |
| 20260508050035 | 63 | 351 | 5.0 | 11.0 | 0.24 | 0.59 | 0.15 | 90 | 1008.0 |
| 20260508045602 | 63 | 11 | 5.0 | 12.0 | 0.00 | 0.35 | 0.09 | 90 | 1007.4 |
| 20260508045043 | 63 | 328 | 7.0 | 12.0 | 0.00 | 0.35 | 0.09 | 90 | 1006.8 |
| 20260508044608 | 63 | 1 | 5.0 | 9.0 | 0.04 | 0.35 | 0.09 | 90 | 1006.4 |
| 20260508044029 | 63 | 39 | 5.0 | 13.0 | 0.04 | 0.35 | 0.09 | 89 | 1006.6 |
| 20260508043533 | 63 | 1 | 6.0 | 13.0 | 0.12 | 0.35 | 0.09 | 89 | 1006.7 |
| 20260508043038 | 63 | 360 | 6.0 | 13.0 | 0.31 | 0.35 | 0.09 | 89 | 1006.7 |
| 20260508042544 | 63 | 359 | 5.0 | 10.0 | 0.35 | 0.35 | 0.09 | 89 | 1006.6 |
| 20260508042028 | 63 | 359 | 5.0 | 9.0 | 0.35 | 0.35 | 0.09 | 89 | 1006.6 |
| 20260508041551 | 63 | 359 | 6.0 | 14.0 | 0.35 | 0.35 | 0.09 | 89 | 1006.6 |
| 20260508041052 | 63 | 360 | 6.0 | 14.0 | 0.35 | 0.35 | 0.09 | 89 | 1006.5 |
| 20260508040536 | 63 | 6 | 5.0 | 11.0 | 0.35 | 0.35 | 0.09 | 89 | 1006.6 |
| 20260508040043 | 63 | 359 | 6.0 | 16.0 | 0.35 | 0.35 | 0.09 | 89 | 1006.5 |
| 20260508035528 | 63 | 357 | 6.0 | 16.0 | 0.35 | 0.35 | 0.09 | 89 | 1006.6 |
| 20260508035031 | 63 | 46 | 10.0 | 17.0 | 0.35 | 0.35 | 0.09 | 89 | 1006.9 |
| 20260508034533 | 63 | 309 | 7.0 | 17.0 | 0.31 | 0.31 | 0.08 | 89 | 1007.0 |
| 20260508034038 | 63 | 337 | 7.0 | 15.0 | 0.31 | 0.31 | 0.08 | 89 | 1007.5 |
| 20260508033543 | 63 | 330 | 9.0 | 20.0 | 0.20 | 0.20 | 0.05 | 87 | 1007.3 |
| 20260508033046 | 64 | 329 | 10.0 | 20.0 | 0.04 | 0.04 | 0.01 | 86 | 1007.7 |
| 20260508032528 | 65 | 318 | 11.0 | 30.0 | 0.00 | 0.00 | 0.00 | 83 | 1007.8 |
| 20260508032032 | 66 | 295 | 14.0 | 31.0 | 0.00 | 0.00 | 0.00 | 80 | 1007.4 |
| 20260508031555 | 67 | 309 | 19.0 | 31.0 | 0.00 | 0.00 | 0.00 | 77 | 1007.5 |
| 20260508031038 | 68 | 322 | 19.0 | 32.0 | 0.00 | 0.00 | 0.00 | 72 | 1007.0 |
| 20260508030527 | 70 | 295 | 13.0 | 32.0 | 0.00 | 0.00 | 0.00 | 69 | 1007.1 |
| 20260508030036 | 72 | 294 | 11.0 | 21.0 | 0.00 | 0.00 | 0.00 | 65 | 1007.5 |
| 20260508025542 | 74 | 274 | 9.0 | 15.0 | 0.00 | 0.00 | 0.00 | 65 | 1006.9 |
| 20260508025027 | 74 | 359 | 9.0 | 16.0 | 0.00 | 0.00 | 0.00 | 65 | 1006.5 |
| 20260508024530 | 74 | 340 | 10.0 | 16.0 | 0.00 | 0.00 | 0.00 | 65 | 1006.6 |
| 20260508024053 | 74 | 1 | 8.0 | 15.0 | 0.00 | 0.00 | 0.00 | 65 | 1006.7 |
| 20260508023539 | 74 | 3 | 8.0 | 15.0 | 0.00 | 0.00 | 0.00 | 64 | 1006.7 |
| 20260508023043 | 74 | 343 | 9.0 | 15.0 | 0.00 | 0.00 | 0.00 | 64 | 1006.9 |
| 20260508022527 | 74 | 1 | 7.0 | 15.0 | 0.00 | 0.00 | 0.00 | 64 | 1006.9 |
| 20260508022034 | 74 | 1 | 7.0 | 15.0 | 0.00 | 0.00 | 0.00 | 65 | 1007.1 |
| 20260508021539 | 74 | 18 | 7.0 | 22.0 | 0.00 | 0.00 | 0.00 | 65 | 1006.6 |
| 20260508021103 | 74 | 1 | 9.0 | 22.0 | 0.00 | 0.00 | 0.00 | 64 | 1006.1 |
| 20260508020526 | 74 | 18 | 11.0 | 26.0 | 0.00 | 0.00 | 0.00 | 65 | 1006.2 |
| 20260508020031 | 74 | 340 | 8.0 | 18.0 | 0.00 | 0.00 | 0.00 | 64 | 1006.3 |
| 20260508015539 | 74 | 355 | 8.0 | 17.0 | 0.00 | 0.00 | 0.00 | 64 | 1006.5 |
| 20260508015042 | 74 | 20 | 9.0 | 20.0 | 0.00 | 0.00 | 0.00 | 64 | 1006.5 |
| 20260508014543 | 74 | 1 | 11.0 | 21.0 | 0.00 | 0.00 | 0.00 | 64 | 1006.7 |
| 20260508014048 | 74 | 359 | 9.0 | 20.0 | 0.00 | 0.00 | 0.00 | 64 | 1006.7 |
| 20260508013531 | 74 | 345 | 8.0 | 22.0 | 0.00 | 0.00 | 0.00 | 64 | 1006.8 |
| 20260508013035 | 74 | 1 | 8.0 | 22.0 | 0.00 | 0.00 | 0.00 | 64 | 1006.8 |
| 20260508012541 | 74 | 1 | 7.0 | 18.0 | 0.00 | 0.00 | 0.00 | 64 | 1006.8 |
| 20260508012044 | 74 | 353 | 9.0 | 17.0 | 0.00 | 0.00 | 0.00 | 64 | 1006.9 |
| 20260508011529 | 74 | 359 | 8.0 | 16.0 | 0.00 | 0.00 | 0.00 | 63 | 1007.0 |
| 20260508011031 | 74 | 1 | 8.0 | 15.0 | 0.00 | 0.00 | 0.00 | 63 | 1007.0 |
| 20260508010535 | 74 | 17 | 10.0 | 15.0 | 0.00 | 0.00 | 0.00 | 63 | 1006.9 |
| 20260508010041 | 74 | 5 | 9.0 | 17.0 | 0.00 | 0.00 | 0.00 | 63 | 1006.9 |
| 20260508005527 | 74 | 1 | 9.0 | 20.0 | 0.00 | 0.00 | 0.00 | 63 | 1006.9 |
| 20260508005052 | 74 | 1 | 10.0 | 20.0 | 0.00 | 0.00 | 0.00 | 63 | 1006.9 |
| 20260508004532 | 74 | 347 | 8.0 | 17.0 | 0.00 | 0.00 | 0.00 | 63 | 1006.9 |
| 20260508004035 | 74 | 1 | 8.0 | 15.0 | 0.00 | 0.00 | 0.00 | 63 | 1006.8 |
| 20260508003539 | 74 | 330 | 9.0 | 18.0 | 0.00 | 0.00 | 0.00 | 63 | 1006.7 |
| 20260508003043 | 74 | 20 | 10.0 | 18.0 | 0.00 | 0.00 | 0.00 | 63 | 1006.9 |
| 20260508002547 | 74 | 6 | 8.0 | 18.0 | 0.00 | 0.00 | 0.00 | 63 | 1006.9 |
| 20260508002049 | 74 | 33 | 9.0 | 18.0 | 0.00 | 0.00 | 0.00 | 63 | 1006.9 |
| 20260508001552 | 74 | 2 | 8.0 | 14.0 | 0.00 | 0.00 | 0.00 | 63 | 1006.9 |
| 20260508001034 | 74 | 23 | 7.0 | 16.0 | 0.00 | 0.00 | 0.00 | 63 | 1006.9 |
| 20260508000557 | 74 | 346 | 7.0 | 16.0 | 0.00 | 0.00 | 0.00 | 63 | 1006.8 |
| 20260508000042 | 74 | 1 | 7.0 | 12.0 | 0.00 | 0.00 | 0.00 | 63 | 1006.8 |
| 20260507235604 | 74 | 11 | 6.0 | 12.0 | 0.00 | 0.00 | 0.00 | 63 | 1006.7 |
| 20260507235028 | 74 | 360 | 5.0 | 9.0 | 0.00 | 0.00 | 0.00 | 63 | 1006.8 |
| 20260507234532 | 75 | 4 | 5.0 | 9.0 | 0.00 | 0.00 | 0.00 | 63 | 1006.7 |
| 20260507234055 | 75 | 356 | 5.0 | 11.0 | 0.00 | 0.00 | 0.00 | 63 | 1006.7 |
| 20260507233538 | 75 | 359 | 5.0 | 10.0 | 0.00 | 0.00 | 0.00 | 63 | 1006.8 |
| 20260507233040 | 75 | 13 | 6.0 | 12.0 | 0.00 | 0.00 | 0.00 | 63 | 1006.8 |
| 20260507232528 | 75 | 1 | 4.0 | 12.0 | 0.00 | 0.00 | 0.00 | 62 | 1006.7 |
| 20260507232032 | 75 | 11 | 5.0 | 10.0 | 0.00 | 0.00 | 0.00 | 62 | 1006.7 |
| 20260507231538 | 75 | 342 | 5.0 | 11.0 | 0.00 | 0.00 | 0.00 | 62 | 1006.6 |
| 20260507231043 | 75 | 40 | 5.0 | 11.0 | 0.00 | 0.00 | 0.00 | 62 | 1006.6 |
| 20260507230527 | 75 | 349 | 4.0 | 12.0 | 0.00 | 0.00 | 0.00 | 62 | 1006.6 |
| 20260507230034 | 75 | 40 | 5.0 | 12.0 | 0.00 | 0.00 | 0.00 | 62 | 1006.7 |
| 20260507225535 | 75 | 359 | 6.0 | 9.0 | 0.00 | 0.00 | 0.00 | 62 | 1006.6 |
| 20260507225038 | 75 | 1 | 5.0 | 9.0 | 0.00 | 0.00 | 0.00 | 62 | 1006.7 |
| 20260507224541 | 75 | 4 | 5.0 | 9.0 | 0.00 | 0.00 | 0.00 | 62 | 1006.8 |
| 20260507224045 | 75 | 31 | 7.0 | 11.0 | 0.00 | 0.00 | 0.00 | 62 | 1006.9 |
| 20260507223606 | 75 | 360 | 5.0 | 12.0 | 0.00 | 0.00 | 0.00 | 61 | 1006.9 |
| 20260507223029 | 75 | 1 | 7.0 | 12.0 | 0.00 | 0.00 | 0.00 | 61 | 1006.8 |
| 20260507222539 | 75 | 349 | 7.0 | 11.0 | 0.00 | 0.00 | 0.00 | 61 | 1006.7 |
| 20260507222041 | 76 | 306 | 6.0 | 9.0 | 0.00 | 0.00 | 0.00 | 61 | 1006.7 |
| 20260507221544 | 76 | 13 | 6.0 | 9.0 | 0.00 | 0.00 | 0.00 | 60 | 1006.8 |
| 20260507221030 | 76 | 345 | 6.0 | 12.0 | 0.00 | 0.00 | 0.00 | 60 | 1006.9 |
| 20260507220531 | 76 | 11 | 8.0 | 12.0 | 0.00 | 0.00 | 0.00 | 60 | 1006.8 |
| 20260507220054 | 76 | 5 | 7.0 | 12.0 | 0.00 | 0.00 | 0.00 | 60 | 1006.8 |
| 20260507215533 | 76 | 360 | 5.0 | 9.0 | 0.00 | 0.00 | 0.00 | 60 | 1007.2 |
| 20260507215039 | 76 | 8 | 6.0 | 11.0 | 0.00 | 0.00 | 0.00 | 60 | 1007.1 |
| 20260507214542 | 76 | 6 | 6.0 | 11.0 | 0.00 | 0.00 | 0.00 | 60 | 1007.0 |
| 20260507214045 | 76 | 42 | 5.0 | 9.0 | 0.00 | 0.00 | 0.00 | 60 | 1007.1 |
| 20260507213546 | 77 | 359 | 4.0 | 9.0 | 0.00 | 0.00 | 0.00 | 60 | 1007.3 |
| 20260507213027 | 77 | 351 | 4.0 | 9.0 | 0.00 | 0.00 | 0.00 | 60 | 1007.2 |
| 20260507212530 | 77 | 1 | 4.0 | 12.0 | 0.00 | 0.00 | 0.00 | 60 | 1007.2 |
| 20260507212038 | 77 | 20 | 7.0 | 12.0 | 0.00 | 0.00 | 0.00 | 59 | 1007.3 |
| 20260507211602 | 77 | 304 | 4.0 | 12.0 | 0.00 | 0.00 | 0.00 | 59 | 1007.2 |
| 20260507211043 | 77 | 13 | 7.0 | 12.0 | 0.00 | 0.00 | 0.00 | 59 | 1007.3 |
| 20260507210526 | 77 | 359 | 8.0 | 12.0 | 0.00 | 0.00 | 0.00 | 58 | 1007.4 |
| 20260507210051 | 77 | 16 | 6.0 | 11.0 | 0.00 | 0.00 | 0.00 | 59 | 1007.3 |
| 20260507205552 | 78 | 1 | 6.0 | 17.0 | 0.00 | 0.00 | 0.00 | 58 | 1007.3 |
| 20260507205035 | 78 | 360 | 9.0 | 17.0 | 0.00 | 0.00 | 0.00 | 58 | 1007.2 |
| 20260507204559 | 78 | 24 | 5.0 | 12.0 | 0.00 | 0.00 | 0.00 | 59 | 1007.1 |
| 20260507203537 | 78 | 335 | 5.0 | 14.0 | 0.00 | 0.00 | 0.00 | 58 | 1007.3 |
| 20260507203039 | 78 | 360 | 7.0 | 14.0 | 0.00 | 0.00 | 0.00 | 58 | 1007.2 |
| 20260507202523 | 79 | 356 | 8.0 | 14.0 | 0.00 | 0.00 | 0.00 | 57 | 1007.3 |
| 20260507202029 | 79 | 57 | 8.0 | 21.0 | 0.00 | 0.00 | 0.00 | 57 | 1007.3 |
| 20260507201532 | 79 | 355 | 8.0 | 21.0 | 0.00 | 0.00 | 0.00 | 57 | 1007.3 |
| 20260507201037 | 79 | 327 | 9.0 | 19.0 | 0.00 | 0.00 | 0.00 | 57 | 1007.3 |
| 20260507200524 | 79 | 20 | 7.0 | 19.0 | 0.00 | 0.00 | 0.00 | 56 | 1007.3 |
| 20260507200028 | 79 | 1 | 8.0 | 16.0 | 0.00 | 0.00 | 0.00 | 56 | 1007.4 |
| 20260507195532 | 79 | 332 | 10.0 | 16.0 | 0.00 | 0.00 | 0.00 | 56 | 1007.3 |
| 20260507195037 | 79 | 3 | 8.0 | 19.0 | 0.00 | 0.00 | 0.00 | 56 | 1007.2 |
| 20260507194558 | 79 | 1 | 13.0 | 19.0 | 0.00 | 0.00 | 0.00 | 56 | 1007.1 |
| 20260507194040 | 79 | 27 | 10.0 | 18.0 | 0.00 | 0.00 | 0.00 | 56 | 1007.2 |
| 20260507193604 | 79 | 356 | 11.0 | 22.0 | 0.00 | 0.00 | 0.00 | 55 | 1007.3 |
| 20260507193044 | 80 | 334 | 12.0 | 19.0 | 0.00 | 0.00 | 0.00 | 55 | 1007.3 |
| 20260507192546 | 80 | 360 | 8.0 | 15.0 | 0.00 | 0.00 | 0.00 | 56 | 1007.3 |
| 20260507192026 | 79 | 2 | 9.0 | 16.0 | 0.00 | 0.00 | 0.00 | 56 | 1007.3 |
| 20260507191530 | 80 | 328 | 7.0 | 16.0 | 0.00 | 0.00 | 0.00 | 56 | 1007.3 |
| 20260507191034 | 79 | 359 | 10.0 | 19.0 | 0.00 | 0.00 | 0.00 | 56 | 1007.3 |
| 20260507190535 | 79 | 18 | 9.0 | 19.0 | 0.00 | 0.00 | 0.00 | 56 | 1007.4 |
| 20260507190035 | 79 | 1 | 9.0 | 15.0 | 0.00 | 0.00 | 0.00 | 56 | 1007.2 |
| 20260507185538 | 79 | 1 | 7.0 | 16.0 | 0.00 | 0.00 | 0.00 | 57 | 1007.3 |
| 20260507185042 | 79 | 1 | 9.0 | 16.0 | 0.00 | 0.00 | 0.00 | 56 | 1007.4 |
| 20260507184601 | 79 | 3 | 8.0 | 14.0 | 0.00 | 0.00 | 0.00 | 56 | 1007.5 |
| 20260507184027 | 79 | 338 | 8.0 | 19.0 | 0.00 | 0.00 | 0.00 | 56 | 1007.4 |
| 20260507183530 | 79 | 1 | 11.0 | 19.0 | 0.00 | 0.00 | 0.00 | 56 | 1007.5 |
| 20260507183033 | 80 | 6 | 11.0 | 19.0 | 0.00 | 0.00 | 0.00 | 55 | 1007.4 |
| 20260507182539 | 80 | 359 | 9.0 | 20.0 | 0.00 | 0.00 | 0.00 | 55 | 1007.2 |
| 20260507182043 | 80 | 1 | 9.0 | 20.0 | 0.00 | 0.00 | 0.00 | 54 | 1007.1 |
| 20260507181546 | 80 | 345 | 9.0 | 24.0 | 0.00 | 0.00 | 0.00 | 54 | 1007.1 |
| 20260507181109 | 80 | 16 | 12.0 | 26.0 | 0.00 | 0.00 | 0.00 | 54 | 1007.1 |
| 20260507180528 | 80 | 354 | 15.0 | 26.0 | 0.00 | 0.00 | 0.00 | 53 | 1007.1 |
| 20260507180033 | 80 | 323 | 14.0 | 31.0 | 0.00 | 0.00 | 0.00 | 52 | 1007.2 |
| 20260507175554 | 81 | 25 | 12.0 | 29.0 | 0.00 | 0.00 | 0.00 | 52 | 1007.5 |
| 20260507175036 | 81 | 308 | 16.0 | 26.0 | 0.00 | 0.00 | 0.00 | 51 | 1007.4 |
| 20260507174538 | 81 | 336 | 16.0 | 26.0 | 0.00 | 0.00 | 0.00 | 51 | 1007.4 |
| 20260507174040 | 82 | 326 | 17.0 | 26.0 | 0.00 | 0.00 | 0.00 | 50 | 1007.5 |
| 20260507173527 | 82 | 8 | 11.0 | 26.0 | 0.00 | 0.00 | 0.00 | 50 | 1007.6 |
| 20260507173031 | 82 | 359 | 14.0 | 27.0 | 0.00 | 0.00 | 0.00 | 50 | 1007.6 |
| 20260507172534 | 82 | 338 | 14.0 | 28.0 | 0.00 | 0.00 | 0.00 | 50 | 1007.6 |
| 20260507172035 | 82 | 360 | 17.0 | 28.0 | 0.00 | 0.00 | 0.00 | 50 | 1007.6 |
| 20260507171559 | 82 | 349 | 11.0 | 26.0 | 0.00 | 0.00 | 0.00 | 51 | 1007.7 |
| 20260507171040 | 82 | 352 | 13.0 | 24.0 | 0.00 | 0.00 | 0.00 | 50 | 1007.7 |
| 20260507170537 | 82 | 300 | 13.0 | 24.0 | 0.00 | 0.00 | 0.00 | 50 | 1007.6 |
| 20260507170044 | 82 | 57 | 12.0 | 24.0 | 0.00 | 0.00 | 0.00 | 50 | 1007.7 |
| 20260507165541 | 82 | 349 | 11.0 | 26.0 | 0.00 | 0.00 | 0.00 | 51 | 1007.6 |
| 20260507165100 | 82 | 10 | 14.0 | 27.0 | 0.00 | 0.00 | 0.00 | 50 | 1007.7 |
| 20260507164542 | 82 | 1 | 15.0 | 25.0 | 0.00 | 0.00 | 0.00 | 49 | 1007.6 |
| 20260507164043 | 82 | 32 | 14.0 | 27.0 | 0.00 | 0.00 | 0.00 | 50 | 1007.7 |
| 20260507163545 | 82 | 31 | 16.0 | 32.0 | 0.00 | 0.00 | 0.00 | 49 | 1007.9 |
| 20260507163029 | 82 | 7 | 18.0 | 32.0 | 0.00 | 0.00 | 0.00 | 49 | 1008.0 |
| 20260507162533 | 82 | 6 | 12.0 | 28.0 | 0.00 | 0.00 | 0.00 | 49 | 1008.0 |
| 20260507162056 | 82 | 1 | 11.0 | 24.0 | 0.00 | 0.00 | 0.00 | 50 | 1008.1 |
| 20260507161540 | 82 | 1 | 12.0 | 34.0 | 0.00 | 0.00 | 0.00 | 50 | 1007.9 |
| 20260507161046 | 81 | 359 | 13.0 | 34.0 | 0.00 | 0.00 | 0.00 | 51 | 1008.0 |
| 20260507160548 | 82 | 7 | 17.0 | 29.0 | 0.00 | 0.00 | 0.00 | 51 | 1008.2 |
| 20260507160049 | 81 | 15 | 13.0 | 32.0 | 0.00 | 0.00 | 0.00 | 52 | 1008.1 |
| 20260507155529 | 81 | 313 | 18.0 | 32.0 | 0.00 | 0.00 | 0.00 | 53 | 1008.2 |
| 20260507155031 | 81 | 360 | 15.0 | 30.0 | 0.00 | 0.00 | 0.00 | 54 | 1008.1 |
| 20260507154535 | 81 | 14 | 12.0 | 24.0 | 0.00 | 0.00 | 0.00 | 57 | 1008.2 |
| 20260507154036 | 80 | 354 | 14.0 | 28.0 | 0.00 | 0.00 | 0.00 | 56 | 1008.4 |
| 20260507153538 | 80 | 30 | 16.0 | 29.0 | 0.00 | 0.00 | 0.00 | 57 | 1008.7 |
| 20260507153039 | 80 | 23 | 13.0 | 27.0 | 0.00 | 0.00 | 0.00 | 59 | 1008.9 |
| 20260507152538 | 80 | 320 | 11.0 | 23.0 | 0.00 | 0.00 | 0.00 | 60 | 1008.9 |
| 20260507152040 | 79 | 309 | 15.0 | 27.0 | 0.00 | 0.00 | 0.00 | 61 | 1009.0 |
| 20260507151541 | 79 | 11 | 14.0 | 29.0 | 0.00 | 0.00 | 0.00 | 62 | 1009.2 |
| 20260507151040 | 79 | 360 | 15.0 | 29.0 | 0.00 | 0.00 | 0.00 | 62 | 1009.3 |
| 20260507150604 | 79 | 7 | 13.0 | 25.0 | 0.00 | 0.00 | 0.00 | 62 | 1009.5 |
| 20260507150048 | 78 | 330 | 15.0 | 25.0 | 0.00 | 0.00 | 0.00 | 63 | 1009.7 |
| 20260507145531 | 78 | 311 | 13.0 | 24.0 | 0.00 | 0.00 | 0.00 | 64 | 1009.9 |
| 20260507145037 | 78 | 16 | 11.0 | 25.0 | 0.00 | 0.00 | 0.00 | 66 | 1009.9 |
| 20260507144539 | 77 | 357 | 17.0 | 25.0 | 0.00 | 0.00 | 0.00 | 65 | 1010.0 |
| 20260507144039 | 77 | 3 | 13.0 | 32.0 | 0.00 | 0.00 | 0.00 | 66 | 1010.2 |
| 20260507143602 | 77 | 326 | 9.0 | 24.0 | 0.00 | 0.00 | 0.00 | 67 | 1010.4 |
| 20260507143043 | 77 | 34 | 12.0 | 24.0 | 0.00 | 0.00 | 0.00 | 67 | 1010.6 |
| 20260507142546 | 76 | 328 | 14.0 | 26.0 | 0.00 | 0.00 | 0.00 | 69 | 1010.6 |
| 20260507142049 | 76 | 352 | 13.0 | 26.0 | 0.00 | 0.00 | 0.00 | 69 | 1010.7 |
| 20260507141038 | 75 | 8 | 13.0 | 26.0 | 0.00 | 0.00 | 0.00 | 69 | 1011.1 |
| 20260507140539 | 75 | 321 | 12.0 | 25.0 | 0.00 | 0.00 | 0.00 | 71 | 1011.3 |
| 20260507140039 | 74 | 359 | 14.0 | 22.0 | 0.00 | 0.00 | 0.00 | 71 | 1011.3 |
| 20260507135542 | 74 | 6 | 12.0 | 30.0 | 0.00 | 0.00 | 0.00 | 73 | 1011.4 |
| 20260507135044 | 73 | 8 | 15.0 | 30.0 | 0.00 | 0.00 | 0.00 | 73 | 1011.4 |
| 20260507134544 | 73 | 344 | 12.0 | 26.0 | 0.00 | 0.00 | 0.00 | 74 | 1011.5 |
| 20260507134106 | 73 | 348 | 12.0 | 20.0 | 0.00 | 0.00 | 0.00 | 74 | 1011.6 |
| 20260507133604 | 73 | 17 | 13.0 | 25.0 | 0.00 | 0.00 | 0.00 | 74 | 1011.7 |
| 20260507133104 | 73 | 30 | 12.0 | 23.0 | 0.00 | 0.00 | 0.00 | 73 | 1011.8 |
| 20260507132604 | 73 | 13 | 14.0 | 23.0 | 0.00 | 0.00 | 0.00 | 73 | 1011.9 |
| 20260507132044 | 73 | 11 | 17.0 | 24.0 | 0.00 | 0.00 | 0.00 | 73 | 1012.0 |
| 20260507131530 | 73 | 11 | 13.0 | 24.0 | 0.00 | 0.00 | 0.00 | 73 | 1012.1 |
| 20260507131031 | 73 | 9 | 12.0 | 21.0 | 0.00 | 0.00 | 0.00 | 74 | 1012.4 |
| 20260507130533 | 72 | 331 | 12.0 | 0.0 | 0.00 | 0.00 | 0.00 | 74 | 1012.2 |
| 20260507130034 | 72 | 25 | 10.0 | 20.0 | 0.00 | 0.00 | 0.00 | 75 | 1012.4 |
| 20260507125534 | 72 | 359 | 13.0 | 20.0 | 0.00 | 0.00 | 0.00 | 75 | 1012.5 |
| 20260507125035 | 72 | 354 | 12.0 | 25.0 | 0.00 | 0.00 | 0.00 | 75 | 1012.5 |
| 20260507124538 | 72 | 14 | 13.0 | 25.0 | 0.00 | 0.00 | 0.00 | 75 | 1012.6 |
| 20260507124037 | 72 | 11 | 13.0 | 20.0 | 0.00 | 0.00 | 0.00 | 74 | 1012.7 |
| 20260507123540 | 72 | 22 | 11.0 | 22.0 | 0.00 | 0.00 | 0.00 | 74 | 1012.8 |
| 20260507123040 | 72 | 347 | 13.0 | 22.0 | 0.00 | 0.00 | 0.00 | 74 | 1012.9 |
| 20260507122541 | 72 | 354 | 9.0 | 20.0 | 0.00 | 0.00 | 0.00 | 74 | 1012.8 |
| 20260507122039 | 72 | 360 | 12.0 | 21.0 | 0.00 | 0.00 | 0.00 | 74 | 1012.8 |
| 20260507121543 | 72 | 348 | 10.0 | 21.0 | 0.00 | 0.00 | 0.00 | 75 | 1012.8 |
| 20260507121026 | 72 | 360 | 9.0 | 20.0 | 0.00 | 0.00 | 0.00 | 75 | 1012.8 |
| 20260507120530 | 72 | 15 | 13.0 | 21.0 | 0.00 | 0.00 | 0.00 | 76 | 1012.8 |
| 20260507120056 | 72 | 359 | 10.0 | 25.0 | 0.00 | 0.00 | 0.00 | 76 | 1012.6 |
| 20260507115525 | 72 | 1 | 15.0 | 25.0 | 0.00 | 0.00 | 0.00 | 76 | 1012.6 |
| 20260507115030 | 72 | 355 | 13.0 | 22.0 | 0.00 | 0.00 | 0.00 | 76 | 1012.5 |
| 20260507114531 | 72 | 326 | 13.0 | 23.0 | 0.00 | 0.00 | 0.00 | 76 | 1012.5 |
| 20260507114035 | 71 | 8 | 14.0 | 23.0 | 0.00 | 0.00 | 0.00 | 76 | 1012.6 |
| 20260507113539 | 71 | 348 | 12.0 | 23.0 | 0.00 | 0.00 | 0.00 | 77 | 1012.5 |
| 20260507113040 | 71 | 1 | 10.0 | 18.0 | 0.00 | 0.00 | 0.00 | 77 | 1012.6 |
| 20260507112526 | 71 | 1 | 11.0 | 24.0 | 0.00 | 0.00 | 0.00 | 77 | 1012.5 |
| 20260507112051 | 71 | 15 | 11.0 | 24.0 | 0.00 | 0.00 | 0.00 | 77 | 1012.5 |
| 20260507111554 | 71 | 16 | 12.0 | 22.0 | 0.00 | 0.00 | 0.00 | 77 | 1012.4 |
| 20260507111054 | 71 | 11 | 11.0 | 22.0 | 0.00 | 0.00 | 0.00 | 77 | 1012.3 |
| 20260507110537 | 71 | 12 | 10.0 | 20.0 | 0.00 | 0.00 | 0.00 | 77 | 1012.3 |
| 20260507110038 | 71 | 9 | 13.0 | 20.0 | 0.00 | 0.00 | 0.00 | 77 | 1012.3 |
| 20260507105609 | 71 | 8 | 12.0 | 20.0 | 0.00 | 0.00 | 0.00 | 77 | 1012.1 |
| 20260507105043 | 71 | 297 | 11.0 | 20.0 | 0.00 | 0.00 | 0.00 | 77 | 1012.0 |
| 20260507104605 | 71 | 349 | 12.0 | 20.0 | 0.00 | 0.00 | 0.00 | 77 | 1012.0 |
| 20260507104045 | 71 | 5 | 13.0 | 20.0 | 0.00 | 0.00 | 0.00 | 77 | 1012.0 |
| 20260507103535 | 71 | 360 | 10.0 | 21.0 | 0.00 | 0.00 | 0.00 | 78 | 1012.1 |
| 20260507103040 | 71 | 1 | 14.0 | 23.0 | 0.00 | 0.00 | 0.00 | 78 | 1012.0 |
| 20260507102542 | 71 | 22 | 12.0 | 23.0 | 0.00 | 0.00 | 0.00 | 79 | 1012.1 |
| 20260507102104 | 71 | 355 | 12.0 | 21.0 | 0.00 | 0.00 | 0.00 | 79 | 1012.0 |
| 20260507101526 | 71 | 1 | 11.0 | 22.0 | 0.00 | 0.00 | 0.00 | 80 | 1012.0 |
| 20260507101030 | 71 | 25 | 12.0 | 22.0 | 0.00 | 0.00 | 0.00 | 80 | 1011.9 |
| 20260507100551 | 70 | 352 | 11.0 | 21.0 | 0.00 | 0.00 | 0.00 | 80 | 1012.0 |
| 20260507100031 | 71 | 28 | 12.0 | 23.0 | 0.00 | 0.00 | 0.00 | 80 | 1012.1 |
| 20260507095533 | 71 | 347 | 12.0 | 23.0 | 0.00 | 0.00 | 0.00 | 80 | 1012.0 |
| 20260507095032 | 71 | 353 | 12.0 | 21.0 | 0.00 | 0.00 | 0.00 | 80 | 1012.2 |
| 20260507094534 | 71 | 1 | 11.0 | 20.0 | 0.00 | 0.00 | 0.00 | 80 | 1012.1 |
| 20260507094040 | 71 | 359 | 11.0 | 19.0 | 0.00 | 0.00 | 0.00 | 80 | 1012.0 |
| 20260507093540 | 71 | 21 | 13.0 | 21.0 | 0.00 | 0.00 | 0.00 | 80 | 1012.0 |
| 20260507093043 | 71 | 1 | 14.0 | 23.0 | 0.00 | 0.00 | 0.00 | 80 | 1012.0 |
| 20260507092533 | 71 | 360 | 12.0 | 20.0 | 0.00 | 0.00 | 0.00 | 80 | 1012.0 |
| 20260507092039 | 71 | 1 | 14.0 | 23.0 | 0.00 | 0.00 | 0.00 | 80 | 1012.0 |
| 20260507091542 | 71 | 1 | 10.0 | 23.0 | 0.00 | 0.00 | 0.00 | 80 | 1012.1 |
| 20260507091047 | 71 | 357 | 12.0 | 21.0 | 0.00 | 0.00 | 0.00 | 80 | 1012.2 |
| 20260507090528 | 71 | 27 | 11.0 | 21.0 | 0.00 | 0.00 | 0.00 | 80 | 1012.2 |
| 20260507090035 | 71 | 17 | 13.0 | 20.0 | 0.00 | 0.00 | 0.00 | 81 | 1012.3 |
| 20260507085537 | 70 | 8 | 10.0 | 19.0 | 0.00 | 0.00 | 0.00 | 81 | 1012.3 |
| 20260507085040 | 70 | 1 | 12.0 | 19.0 | 0.00 | 0.00 | 0.00 | 81 | 1012.3 |
| 20260507084542 | 70 | 1 | 9.0 | 19.0 | 0.00 | 0.00 | 0.00 | 82 | 1012.3 |
| 20260507084041 | 70 | 6 | 11.0 | 20.0 | 0.00 | 0.00 | 0.00 | 82 | 1012.3 |
| 20260507083604 | 70 | 359 | 10.0 | 20.0 | 0.00 | 0.00 | 0.00 | 82 | 1012.4 |
| 20260507083026 | 70 | 360 | 10.0 | 24.0 | 0.00 | 0.00 | 0.00 | 82 | 1012.5 |
| 20260507082530 | 70 | 330 | 12.0 | 21.0 | 0.00 | 0.00 | 0.00 | 82 | 1012.5 |
| 20260507082054 | 70 | 1 | 12.0 | 19.0 | 0.00 | 0.00 | 0.00 | 82 | 1012.5 |
| 20260507081539 | 70 | 358 | 10.0 | 18.0 | 0.00 | 0.00 | 0.00 | 83 | 1012.5 |
| 20260507081044 | 70 | 359 | 10.0 | 19.0 | 0.00 | 0.00 | 0.00 | 83 | 1012.7 |
| 20260507080528 | 70 | 20 | 11.0 | 19.0 | 0.00 | 0.00 | 0.00 | 83 | 1012.7 |
| 20260507080034 | 70 | 360 | 10.0 | 19.0 | 0.00 | 0.00 | 0.00 | 83 | 1012.7 |
| 20260507075536 | 70 | 12 | 11.0 | 19.0 | 0.00 | 0.00 | 0.00 | 83 | 1012.8 |
| 20260507075042 | 70 | 13 | 11.0 | 19.0 | 0.00 | 0.00 | 0.00 | 84 | 1012.8 |
| 20260507074545 | 70 | 359 | 11.0 | 17.0 | 0.00 | 0.00 | 0.00 | 83 | 1012.9 |
| 20260507074028 | 70 | 360 | 10.0 | 19.0 | 0.00 | 0.00 | 0.00 | 84 | 1013.0 |
| 20260507073531 | 70 | 308 | 10.0 | 19.0 | 0.00 | 0.00 | 0.00 | 83 | 1013.0 |
| 20260507073035 | 70 | 1 | 10.0 | 17.0 | 0.00 | 0.00 | 0.00 | 83 | 1013.0 |
| 20260507072539 | 70 | 352 | 10.0 | 16.0 | 0.00 | 0.00 | 0.00 | 83 | 1013.0 |
| 20260507072101 | 70 | 15 | 11.0 | 17.0 | 0.00 | 0.00 | 0.00 | 83 | 1013.0 |
| 20260507071527 | 70 | 360 | 11.0 | 17.0 | 0.00 | 0.00 | 0.00 | 83 | 1013.3 |
| 20260507071033 | 70 | 12 | 9.0 | 19.0 | 0.00 | 0.00 | 0.00 | 82 | 1013.4 |
| 20260507070537 | 70 | 14 | 11.0 | 19.0 | 0.00 | 0.00 | 0.00 | 82 | 1013.5 |
| 20260507070043 | 70 | 340 | 9.0 | 18.0 | 0.00 | 0.00 | 0.00 | 82 | 1013.5 |
| 20260507065546 | 70 | 1 | 9.0 | 14.0 | 0.00 | 0.00 | 0.00 | 81 | 1013.6 |
| 20260507065030 | 69 | 1 | 8.0 | 12.0 | 0.00 | 0.00 | 0.00 | 81 | 1013.7 |